Home   Weather   Iquitos   Past weeks

Flag for Peru Past Weather in Iquitos, Loreto, Peru — Yesterday and Last 2 Weeks

Now
73 °F

Passing clouds.


Feels Like: 70 °F
Forecast: 72 / 86 °F
Wind: 5 mph from Southwest

Location: Iquitos Airport

Current Time: Sep 1, 2016 at 12:44:59 AM

Latest Report: Sep 1, 2016 at 12:00 AM


Visibility: N/A

Pressure: 29.95 "Hg

Humidity: 94%

Dew Point: 72 °F

Location of IquitosLocation

Past Weather in Iquitos — Graph

°F

Iquitos Temperature Yesterday

Maximum temperature yesterday: 81 °F (at 11:00 AM)
Minimum temperature yesterday: 73 °F (at 3:00 AM)
Average temperature yesterday: 76 °F

High & Low Weather Summary for the Past Weeks

 TemperatureHumidityPressure
High95 °F (Aug 29, 3:00 PM)100% (Aug 23, 5:00 AM)30.09 "Hg (Aug 23, 5:00 AM)
Low66 °F (Aug 23, 5:00 AM)47% (Aug 29, 3:00 PM)29.74 "Hg (Aug 20, 4:00 PM)
Average79 °F82%29.90 "Hg
* Reported Aug 16 11:00 PM — Aug 31 11:00 PM, Iquitos, Weather by CustomWeather, © 2016

Note: Actual official high and low records may vary slightly from our data, if they occured in-between our weather recording intervals... More about our weather records

Advertising

Iquitos Weather History for the Previous 24 Hours

Scroll right to see more
 ConditionsComfort  
Time TempWeatherWind HumidityBarometerVisibility
11:00 PM
Wed, Aug 31
73 °FPartly cloudy.3 mph94%29.98 "HgN/A
10:00 PM73 °FPartly cloudy.No wind94%29.98 "HgN/A
9:00 PM73 °FPartly cloudy.No wind94%29.98 "HgN/A
8:00 PM73 °FPartly cloudy.3 mph94%29.95 "HgN/A
7:00 PM75 °FPassing clouds.1 mph89%29.95 "HgN/A
6:00 PM75 °FPassing clouds.5 mph89%29.92 "HgN/A
5:00 PM75 °FScattered showers. Partly sunny.8 mph89%29.89 "HgN/A
4:00 PM75 °FScattered showers. Partly sunny.9 mph89%29.86 "HgN/A
3:00 PM75 °FDrizzle. Mostly cloudy.9 mph94%29.89 "Hg5 mi
2:00 PM77 °FSprinkles. Mostly cloudy.9 mph89%29.89 "Hg4 mi
1:00 PM81 °FPartly sunny.8 mph79%29.92 "HgN/A
12:00 PM79 °FScattered showers. Partly sunny.9 mph84%29.95 "HgN/A
11:00 AM81 °FScattered showers. Partly sunny.7 mph79%29.95 "Hg5 mi
10:00 AM79 °FScattered showers. Partly sunny.5 mph89%29.95 "Hg5 mi
9:00 AM79 °FBroken clouds.5 mph84%29.95 "HgN/A
8:00 AM77 °FBroken clouds.5 mph89%29.92 "HgN/A
7:00 AM75 °FBroken clouds.5 mph94%29.89 "HgN/A
6:00 AM73 °FScattered showers. Partly sunny.9 mph94%29.89 "Hg5 mi
5:00 AM73 °FPassing clouds.6 mph94%29.83 "Hg5 mi
4:00 AM73 °FPassing clouds.2 mph94%29.83 "Hg5 mi
3:00 AM73 °FPassing clouds.2 mph94%29.86 "Hg5 mi
2:00 AM75 °FThunderstorms. Passing clouds.13 mph94%29.89 "Hg3 mi
1:00 AM75 °FThunderstorms. Passing clouds.8 mph94%29.92 "Hg5 mi
12:00 AM77 °FPassing clouds.3 mph89%29.89 "HgN/A
Weather by CustomWeather, © 2016

See weather overviewHow to use our weather pages